Location: Doverdale
(52.2833°N, 2.2000°W)
Time: 11:42:18
(UTC+00:00)

Cosmos 1455 - Pass Details

Date: 29 October 2020
Orbit: 500 x 521 km, 82.5° (Epoch: 24 November)

Event Time Altitude Azimuth Distance (km) Brightness Sun altitude
Rises 17:53:30 0° 155° (SSE) 2,605 5.6 -11.0°
Reaches altitude 10° 17:55:54 10° 141° (SE) 1,729 4.6 -11.4°
Maximum altitude 17:58:55 23° 88° (E) 1,139 3.3 -11.8°
Drops below altitude 10° 18:01:57 10° 36° (NE) 1,752 4.5 -12.3°
Enters shadow 18:04:18 - 22° (NNE) 2,612 5.5 -12.7°
